QPF
0.00 0.01 0.01 0.01 0.00 0.00 0.00 0.00 0.00 0.00 0.00 0.00 0.00 0.00 0.00 0.00 0.00 0.00 0.00 0.00 0.00 0.00 0.00 0.00 0.00 0.00 0.00 0.00 0.00 0.00 0.00 0.00 0.00 0.00 0.00 0.00 0.00 0.00 0.00 0.00 0.00 0.00 0.00 0.00
0.00 0.00 0.01 0.01 0.01 0.00 0.00 0.00 0.00 0.00 0.00 0.00 0.00 0.00 0.00 0.00 0.00 0.00 0.00 0.00 0.00 0.00 0.00 0.00 0.00 0.00 0.00 0.00 0.00 0.00 0.00 0.00 0.00 0.00 0.00 0.00 0.00 0.00 0.00 0.00 0.00 0.00 0.00 0.00
0.00 0.00 0.01 0.01 0.01 0.01 0.00 0.00 0.00 0.00 0.00 0.00 0.00 0.00 0.00 0.00 0.00 0.00 0.00 0.00 0.00 0.00 0.00 0.00 0.00 0.00 0.00 0.00 0.00 0.00 0.00 0.00 0.00 0.00 0.00 0.00 0.00 0.00 0.00 0.01 0.00 0.00 0.00 0.01
0.00 0.00 0.01 0.00 0.01 0.01 0.01 0.00 0.00 0.00 0.00 0.00 0.00 0.00 0.00 0.00 0.00 0.00 0.00 0.00 0.00 0.00 0.00 0.00 0.00 0.00 0.00 0.00 0.00 0.00 0.00 0.00 0.00 0.00 0.00 0.00 0.00 0.00 0.01 0.01 0.01 0.01 0.01 0.01
0.00 0.00 0.01 0.01 0.01 0.01 0.01 0.00 0.00 0.00 0.00 0.00 0.00 0.00 0.00 0.00 0.00 0.00 0.00 0.00 0.00 0.00 0.00 0.00 0.00 0.00 0.00 0.00 0.00 0.00 0.00 0.00 0.00 0.00 0.00 0.00 0.00 0.00 0.01 0.01 0.00 0.01 0.01 0.01
0.00 0.02 0.02 0.00 0.01 0.01 0.00 0.00 0.00 0.00 0.00 0.00 0.00 0.00 0.00 0.00 0.00 0.00 0.00 0.00 0.00 0.00 0.00 0.00 0.00 0.00 0.00 0.00 0.00 0.00 0.00 0.00 0.00 0.00 0.00 0.00 0.00 0.01 0.01 0.01 0.01 0.01 0.01 0.01
0.00 0.01 0.01 0.01 0.01 0.00 0.00 0.00 0.00 0.00 0.00 0.00 0.00 0.00 0.00 0.00 0.00 0.00 0.00 0.00 0.00 0.00 0.00 0.00 0.00 0.00 0.00 0.00 0.00 0.00 0.00 0.00 0.00 0.00 0.00 0.00 0.01 0.01 0.01 0.01 0.01 0.02 0.01 0.01
0.00 0.02 0.01 0.01 0.00 0.00 0.00 0.00 0.00 0.00 0.00 0.00 0.00 0.00 0.00 0.00 0.00 0.00 0.00 0.00 0.00 0.00 0.00 0.00 0.00 0.00 0.00 0.00 0.00 0.00 0.00 0.00 0.00 0.00 0.00 0.00 0.01 0.01 0.01 0.02 0.02 0.02 0.02 0.02
0.00 0.00 0.00 0.00 0.00 0.00 0.00 0.00 0.00 0.00 0.00 0.00 0.00 0.00 0.00 0.00 0.00 0.00 0.00 0.00 0.00 0.00 0.00 0.00 0.00 0.00 0.00 0.00 0.00 0.00 0.00 0.00 0.00 0.00 0.00 0.01 0.01 0.01 0.01 0.01 0.01 0.01 0.01 0.01
0.00 0.00 0.00 0.00 0.00 0.00 0.00 0.00 0.00 0.00 0.00 0.00 0.00 0.00 0.00 0.00 0.00 0.00 0.00 0.00 0.00 0.00 0.00 0.00 0.00 0.00 0.00 0.00 0.00 0.00 0.00 0.00 0.00 0.00 0.00 0.01 0.01 0.01 0.01 0.01 0.01 0.01 0.01 0.01
0.00 0.00 0.00 0.00 0.00 0.00 0.00 0.00 0.00 0.00 0.00 0.00 0.00 0.00 0.00 0.00 0.00 0.00 0.00 0.00 0.00 0.00 0.00 0.00 0.00 0.00 0.00 0.00 0.00 0.00 0.00 0.00 0.00 0.00 0.01 0.01 0.01 0.02 0.01 0.01 0.01 0.00 0.00 0.00
0.00 0.00 0.00 0.00 0.00 0.00 0.00 0.00 0.00 0.00 0.00 0.00 0.00 0.00 0.00 0.00 0.00 0.00 0.00 0.00 0.00 0.00 0.00 0.00 0.00 0.00 0.00 0.00 0.00 0.00 0.00 0.00 0.00 0.01 0.01 0.01 0.01 0.01 0.01 0.01 0.01 0.00 0.00 0.00
0.00 0.00 0.00 0.00 0.00 0.00 0.00 0.00 0.00 0.00 0.00 0.00 0.00 0.00 0.00 0.00 0.00 0.00 0.00 0.00 0.00 0.00 0.00 0.00 0.00 0.00 0.00 0.00 0.00 0.00 0.00 0.00 0.00 0.01 0.01 0.01 0.01 0.01 0.01 0.01 0.01 0.01 0.00 0.01
0.00 0.00 0.00 0.00 0.00 0.00 0.00 0.00 0.00 0.00 0.00 0.00 0.00 0.00 0.00 0.00 0.00 0.00 0.00 0.00 0.00 0.00 0.00 0.00 0.00 0.00 0.00 0.00 0.00 0.00 0.00 0.00 0.01 0.01 0.02 0.02 0.01 0.02 0.02 0.02 0.02 0.01 0.01 0.01
0.01 0.01 0.00 0.00 0.00 0.00 0.00 0.00 0.00 0.00 0.00 0.00 0.00 0.00 0.00 0.00 0.00 0.00 0.00 0.00 0.00 0.00 0.00 0.00 0.00 0.00 0.00 0.00 0.00 0.00 0.00 0.00 0.00 0.01 0.02 0.02 0.01 0.02 0.02 0.02 0.03 0.02 0.02 0.01
0.01 0.01 0.00 0.00 0.00 0.00 0.00 0.00 0.00 0.00 0.00 0.00 0.00 0.00 0.00 0.00 0.00 0.00 0.00 0.00 0.00 0.00 0.00 0.00 0.00 0.00 0.00 0.00 0.00 0.00 0.00 0.01 0.01 0.01 0.01 0.01 0.01 0.02 0.02 0.03 0.03 0.03 0.02 0.01
0.01 0.01 0.00 0.00 0.00 0.00 0.00 0.00 0.00 0.01 0.01 0.01 0.01 0.00 0.00 0.00 0.00 0.00 0.00 0.00 0.00 0.00 0.00 0.00 0.00 0.00 0.00 0.00 0.00 0.00 0.00 0.01 0.01 0.02 0.02 0.01 0.01 0.01 0.02 0.03 0.03 0.04 0.03 0.02
0.01 0.01 0.01 0.01 0.01 0.01 0.01 0.01 0.01 0.01 0.01 0.01 0.01 0.01 0.00 0.00 0.00 0.00 0.00 0.00 0.00 0.00 0.00 0.00 0.00 0.00 0.00 0.00 0.00 0.00 0.00 0.01 0.01 0.01 0.01 0.01 0.01 0.01 0.02 0.03 0.03 0.03 0.03 0.02
0.02 0.02 0.02 0.01 0.01 0.01 0.01 0.01 0.02 0.02 0.01 0.01 0.01 0.00 0.00 0.00 0.00 0.00 0.00 0.00 0.00 0.00 0.00 0.00 0.00 0.00 0.00 0.00 0.00 0.00 0.00 0.01 0.01 0.01 0.01 0.01 0.01 0.02 0.02 0.03 0.03 0.02 0.02 0.02
0.02 0.02 0.02 0.02 0.01 0.01 0.01 0.01 0.01 0.01 0.01 0.01 0.01 0.00 0.00 0.00 0.00 0.00 0.00 0.00 0.00 0.00 0.00 0.00 0.00 0.00 0.00 0.00 0.00 0.00 0.00 0.01 0.01 0.01 0.01 0.01 0.01 0.02 0.02 0.03 0.03 0.02 0.02 0.02
0.01 0.01 0.01 0.01 0.01 0.01 0.00 0.00 0.01 0.01 0.00 0.00 0.00 0.00 0.00 0.00 0.00 0.00 0.00 0.00 0.00 0.00 0.00 0.00 0.00 0.00 0.00 0.00 0.00 0.00 0.01 0.01 0.01 0.01 0.01 0.01 0.01 0.02 0.03 0.02 0.02 0.02 0.01 0.02
0.01 0.01 0.01 0.01 0.01 0.01 0.01 0.01 0.00 0.00 0.00 0.00 0.00 0.00 0.00 0.00 0.00 0.00 0.00 0.01 0.01 0.01 0.01 0.01 0.00 0.00 0.00 0.00 0.00 0.00 0.01 0.01 0.01 0.01 0.01 0.01 0.01 0.02 0.03 0.03 0.02 0.02 0.01 0.01
0.00 0.00 0.00 0.00 0.00 0.00 0.00 0.00 0.00 0.00 0.00 0.00 0.00 0.00 0.00 0.00 0.01 0.01 0.02 0.02 0.02 0.02 0.02 0.01 0.00 0.00 0.00 0.00 0.00 0.00 0.00 0.00 0.01 0.01 0.02 0.02 0.03 0.04 0.03 0.02 0.02 0.02 0.02 0.01
0.00 0.00 0.00 0.00 0.00 0.00 0.00 0.00 0.00 0.00 0.00 0.00 0.00 0.00 0.01 0.02 0.03 0.04 0.04 0.04 0.04 0.04 0.03 0.02 0.01 0.00 0.00 0.00 0.00 0.00 0.00 0.00 0.01 0.01 0.02 0.02 0.03 0.04 0.03 0.02 0.02 0.01 0.01 0.01
0.00 0.00 0.00 0.00 0.00 0.00 0.00 0.00 0.00 0.00 0.00 0.00 0.01 0.02 0.03 0.05 0.07 0.08 0.08 0.08 0.09 0.07 0.04 0.03 0.01 0.00 0.00 0.00 0.00 0.00 0.00 0.00 0.00 0.01 0.02 0.01 0.01 0.02 0.02 0.02 0.02 0.02 0.02 0.01
0.00 0.00 0.00 0.00 0.00 0.00 0.00 0.00 0.00 0.00 0.00 0.01 0.02 0.04 0.07 0.09 0.12 0.13 0.15 0.15 0.13 0.08 0.05 0.02 0.01 0.01 0.01 0.01 0.00 0.01 0.01 0.00 0.00 0.01 0.02 0.02 0.02 0.02 0.03 0.03 0.03 0.03 0.03 0.02
0.00 0.00 0.00 0.00 0.00 0.00 0.00 0.00 0.00 0.00 0.01 0.02 0.04 0.06 0.08 0.10 0.13 0.16 0.17 0.17 0.15 0.10 0.06 0.03 0.02 0.01 0.01 0.01 0.00 0.00 0.00 0.00 0.00 0.01 0.01 0.02 0.03 0.03 0.03 0.04 0.04 0.03 0.02 0.02
MSLP
1012.23 1012.43 1012.70 1013.05 1013.46 1013.89 1014.29 1014.62 1014.84 1014.93 1014.90 1014.77 1014.58 1014.38 1014.19 1014.04 1013.94 1013.90 1013.87 1013.84 1013.78 1013.67 1013.50 1013.26 1012.98 1012.67 1012.35 1012.04 1011.76 1011.50 1011.26 1011.04 1010.81 1010.58 1010.34 1010.08 1009.82 1009.57 1009.33 1009.10 1008.90 1008.71 1008.54 1008.37
1012.40 1012.59 1012.78 1012.98 1013.20 1013.42 1013.62 1013.79 1013.91 1013.99 1014.02 1014.01 1013.98 1013.96 1013.93 1013.92 1013.91 1013.88 1013.83 1013.72 1013.56 1013.34 1013.06 1012.74 1012.41 1012.08 1011.77 1011.49 1011.25 1011.02 1010.81 1010.60 1010.37 1010.12 1009.85 1009.56 1009.26 1008.97 1008.70 1008.44 1008.22 1008.01 1007.83 1007.65
1012.64 1012.78 1012.89 1012.96 1013.01 1013.05 1013.09 1013.13 1013.18 1013.23 1013.30 1013.38 1013.48 1013.58 1013.68 1013.75 1013.79 1013.76 1013.67 1013.49 1013.23 1012.92 1012.56 1012.19 1011.83 1011.50 1011.21 1010.97 1010.77 1010.58 1010.39 1010.19 1009.95 1009.68 1009.37 1009.03 1008.69 1008.35 1008.03 1007.74 1007.48 1007.26 1007.05 1006.86
1012.91 1013.00 1013.00 1012.95 1012.87 1012.78 1012.69 1012.63 1012.62 1012.66 1012.75 1012.89 1013.06 1013.24 1013.41 1013.53 1013.58 1013.54 1013.40 1013.16 1012.83 1012.45 1012.05 1011.65 1011.29 1010.97 1010.72 1010.52 1010.35 1010.20 1010.03 1009.82 1009.57 1009.26 1008.90 1008.51 1008.11 1007.72 1007.35 1007.02 1006.73 1006.47 1006.25 1006.04
1013.14 1013.13 1013.03 1012.88 1012.69 1012.50 1012.33 1012.21 1012.16 1012.19 1012.30 1012.47 1012.68 1012.91 1013.10 1013.23 1013.27 1013.21 1013.03 1012.74 1012.38 1011.97 1011.55 1011.16 1010.81 1010.53 1010.32 1010.16 1010.02 1009.89 1009.72 1009.50 1009.22 1008.87 1008.46 1008.01 1007.55 1007.10 1006.68 1006.31 1005.98 1005.70 1005.45 1005.23
1013.18 1013.05 1012.86 1012.61 1012.35 1012.10 1011.89 1011.75 1011.69 1011.73 1011.85 1012.04 1012.28 1012.51 1012.71 1012.84 1012.87 1012.78 1012.58 1012.27 1011.90 1011.49 1011.09 1010.73 1010.42 1010.19 1010.02 1009.89 1009.78 1009.65 1009.47 1009.23 1008.91 1008.50 1008.04 1007.53 1007.02 1006.52 1006.05 1005.64 1005.28 1004.97 1004.71 1004.47
1012.92 1012.66 1012.37 1012.05 1011.74 1011.46 1011.25 1011.12 1011.09 1011.16 1011.31 1011.53 1011.78 1012.03 1012.23 1012.35 1012.37 1012.27 1012.07 1011.78 1011.43 1011.05 1010.70 1010.38 1010.13 1009.94 1009.81 1009.70 1009.60 1009.46 1009.26 1008.98 1008.61 1008.15 1007.63 1007.08 1006.51 1005.97 1005.47 1005.03 1004.65 1004.33 1004.06 1003.82
1012.27 1011.89 1011.50 1011.12 1010.79 1010.53 1010.35 1010.27 1010.29 1010.41 1010.62 1010.88 1011.16 1011.42 1011.64 1011.77 1011.80 1011.72 1011.55 1011.29 1010.99 1010.67 1010.38 1010.12 1009.92 1009.78 1009.67 1009.57 1009.46 1009.29 1009.05 1008.72 1008.30 1007.80 1007.23 1006.63 1006.03 1005.46 1004.95 1004.49 1004.11 1003.79 1003.53 1003.30
1011.24 1010.74 1010.27 1009.86 1009.53 1009.30 1009.18 1009.18 1009.28 1009.48 1009.76 1010.08 1010.41 1010.71 1010.96 1011.12 1011.19 1011.15 1011.03 1010.84 1010.60 1010.36 1010.13 1009.94 1009.78 1009.67 1009.56 1009.46 1009.31 1009.11 1008.82 1008.44 1007.96 1007.41 1006.81 1006.19 1005.57 1005.00 1004.48 1004.04 1003.67 1003.37 1003.13 1002.92
1009.93 1009.33 1008.80 1008.37 1008.06 1007.89 1007.85 1007.93 1008.13 1008.43 1008.79 1009.18 1009.58 1009.94 1010.23 1010.45 1010.57 1010.60 1010.55 1010.43 1010.28 1010.11 1009.95 1009.81 1009.69 1009.58 1009.47 1009.33 1009.15 1008.89 1008.54 1008.10 1007.58 1007.00 1006.38 1005.74 1005.13 1004.57 1004.08 1003.66 1003.32 1003.05 1002.84 1002.66
1008.50 1007.83 1007.27 1006.84 1006.56 1006.45 1006.48 1006.66 1006.95 1007.34 1007.79 1008.26 1008.72 1009.15 1009.50 1009.78 1009.97 1010.07 1010.10 1010.07 1010.00 1009.90 1009.80 1009.70 1009.60 1009.49 1009.36 1009.18 1008.93 1008.61 1008.21 1007.72 1007.17 1006.56 1005.93 1005.30 1004.71 1004.18 1003.72 1003.34 1003.04 1002.81 1002.63 1002.49
1007.18 1006.48 1005.90 1005.48 1005.24 1005.17 1005.28 1005.53 1005.90 1006.36 1006.87 1007.41 1007.92 1008.40 1008.81 1009.15 1009.40 1009.58 1009.68 1009.73 1009.73 1009.70 1009.66 1009.59 1009.49 1009.37 1009.20 1008.97 1008.67 1008.29 1007.84 1007.31 1006.73 1006.11 1005.48 1004.88 1004.32 1003.83 1003.41 1003.07 1002.81 1002.61 1002.46 1002.35
1006.17 1005.46 1004.89 1004.49 1004.27 1004.25 1004.39 1004.69 1005.10 1005.60 1006.14 1006.70 1007.24 1007.74 1008.18 1008.56 1008.86 1009.09 1009.26 1009.37 1009.44 1009.47 1009.46 1009.41 1009.33 1009.19 1008.99 1008.72 1008.37 1007.95 1007.45 1006.90 1006.30 1005.69 1005.08 1004.50 1003.97 1003.52 1003.14 1002.83 1002.60 1002.43 1002.30 1002.21
1005.61 1004.91 1004.36 1003.98 1003.78 1003.78 1003.93 1004.23 1004.64 1005.13 1005.65 1006.19 1006.71 1007.20 1007.63 1008.01 1008.33 1008.59 1008.80 1008.96 1009.08 1009.16 1009.18 1009.16 1009.09 1008.95 1008.73 1008.43 1008.06 1007.61 1007.09 1006.52 1005.92 1005.32 1004.73 1004.18 1003.69 1003.26 1002.91 1002.63 1002.41 1002.24 1002.12 1002.03
1005.54 1004.88 1004.36 1004.00 1003.81 1003.79 1003.93 1004.20 1004.55 1004.98 1005.44 1005.90 1006.35 1006.77 1007.15 1007.49 1007.80 1008.06 1008.29 1008.48 1008.63 1008.75 1008.81 1008.82 1008.77 1008.64 1008.43 1008.13 1007.75 1007.29 1006.77 1006.21 1005.62 1005.03 1004.47 1003.94 1003.47 1003.07 1002.73 1002.45 1002.22 1002.05 1001.91 1001.80
1005.93 1005.32 1004.83 1004.48 1004.30 1004.25 1004.34 1004.53 1004.80 1005.12 1005.46 1005.80 1006.13 1006.45 1006.74 1007.00 1007.25 1007.49 1007.71 1007.91 1008.09 1008.24 1008.35 1008.40 1008.38 1008.28 1008.09 1007.81 1007.45 1007.01 1006.50 1005.96 1005.40 1004.83 1004.29 1003.78 1003.33 1002.93 1002.58 1002.29 1002.05 1001.84 1001.67 1001.52
1006.65 1006.09 1005.64 1005.32 1005.12 1005.03 1005.06 1005.15 1005.30 1005.48 1005.67 1005.86 1006.04 1006.20 1006.37 1006.53 1006.70 1006.88 1007.07 1007.27 1007.47 1007.65 1007.80 1007.90 1007.93 1007.88 1007.74 1007.50 1007.17 1006.76 1006.29 1005.78 1005.24 1004.70 1004.17 1003.68 1003.23 1002.83 1002.47 1002.16 1001.89 1001.64 1001.43 1001.24
1007.54 1007.05 1006.64 1006.32 1006.11 1005.99 1005.93 1005.92 1005.94 1005.97 1005.99 1006.00 1006.01 1006.01 1006.03 1006.07 1006.15 1006.26 1006.41 1006.60 1006.81 1007.02 1007.22 1007.37 1007.46 1007.47 1007.38 1007.19 1006.91 1006.54 1006.11 1005.63 1005.11 1004.59 1004.09 1003.60 1003.16 1002.75 1002.38 1002.05 1001.74 1001.47 1001.21 1000.98
1008.45 1008.01 1007.64 1007.34 1007.12 1006.95 1006.82 1006.70 1006.59 1006.47 1006.33 1006.17 1006.00 1005.85 1005.72 1005.64 1005.61 1005.66 1005.77 1005.94 1006.16 1006.39 1006.63 1006.83 1006.98 1007.05 1007.02 1006.88 1006.65 1006.32 1005.92 1005.47 1004.98 1004.48 1003.99 1003.52 1003.07 1002.66 1002.29 1001.94 1001.62 1001.33 1001.05 1000.80
1009.24 1008.85 1008.51 1008.23 1008.00 1007.79 1007.59 1007.39 1007.16 1006.90 1006.61 1006.30 1005.99 1005.69 1005.43 1005.23 1005.12 1005.10 1005.17 1005.32 1005.54 1005.80 1006.08 1006.32 1006.52 1006.63 1006.65 1006.57 1006.37 1006.08 1005.71 1005.28 1004.81 1004.33 1003.85 1003.39 1002.96 1002.56 1002.19 1001.85 1001.54 1001.25 1000.98 1000.72
1009.83 1009.49 1009.18 1008.92 1008.67 1008.44 1008.18 1007.90 1007.58 1007.21 1006.80 1006.36 1005.92 1005.51 1005.15 1004.86 1004.68 1004.60 1004.64 1004.78 1005.01 1005.29 1005.58 1005.86 1006.09 1006.25 1006.30 1006.25 1006.08 1005.81 1005.46 1005.04 1004.59 1004.12 1003.66 1003.22 1002.81 1002.43 1002.09 1001.79 1001.50 1001.24 1000.99 1000.76
1010.22 1009.90 1009.62 1009.36 1009.11 1008.85 1008.55 1008.21 1007.82 1007.36 1006.86 1006.34 1005.81 1005.31 1004.87 1004.53 1004.30 1004.19 1004.21 1004.34 1004.57 1004.86 1005.17 1005.47 1005.73 1005.90 1005.98 1005.93 1005.78 1005.53 1005.18 1004.78 1004.34 1003.89 1003.44 1003.03 1002.65 1002.32 1002.02 1001.76 1001.53 1001.32 1001.12 1000.93
1010.41 1010.12 1009.85 1009.59 1009.33 1009.05 1008.72 1008.33 1007.88 1007.37 1006.81 1006.22 1005.64 1005.09 1004.62 1004.24 1003.99 1003.87 1003.88 1004.01 1004.24 1004.54 1004.86 1005.18 1005.44 1005.62 1005.70 1005.66 1005.51 1005.26 1004.93 1004.53 1004.11 1003.67 1003.26 1002.87 1002.54 1002.25 1002.01 1001.81 1001.64 1001.49 1001.35 1001.21
1010.45 1010.17 1009.91 1009.65 1009.38 1009.07 1008.71 1008.29 1007.80 1007.26 1006.66 1006.05 1005.44 1004.88 1004.40 1004.02 1003.76 1003.64 1003.66 1003.80 1004.04 1004.34 1004.67 1004.98 1005.25 1005.43 1005.50 1005.47 1005.32 1005.07 1004.74 1004.36 1003.95 1003.54 1003.16 1002.82 1002.53 1002.30 1002.11 1001.97 1001.86 1001.77 1001.69 1001.60
1010.37 1010.10 1009.84 1009.58 1009.29 1008.96 1008.59 1008.14 1007.64 1007.07 1006.47 1005.85 1005.25 1004.70 1004.23 1003.86 1003.63 1003.53 1003.56 1003.72 1003.97 1004.27 1004.60 1004.91 1005.17 1005.35 1005.43 1005.39 1005.24 1005.00 1004.69 1004.33 1003.94 1003.57 1003.22 1002.92 1002.68 1002.49 1002.36 1002.27 1002.21 1002.17 1002.13 1002.08
1010.20 1009.94 1009.68 1009.41 1009.12 1008.78 1008.39 1007.93 1007.42 1006.86 1006.27 1005.67 1005.09 1004.57 1004.14 1003.81 1003.61 1003.54 1003.60 1003.77 1004.03 1004.34 1004.67 1004.98 1005.24 1005.41 1005.49 1005.46 1005.33 1005.10 1004.81 1004.48 1004.13 1003.79 1003.48 1003.22 1003.02 1002.87 1002.78 1002.73 1002.70 1002.68 1002.66 1002.63
1009.95 1009.70 1009.45 1009.18 1008.88 1008.54 1008.15 1007.70 1007.20 1006.66 1006.10 1005.54 1005.01 1004.54 1004.15 1003.88 1003.72 1003.69 1003.78 1003.97 1004.24 1004.56 1004.88 1005.19 1005.44 1005.62 1005.70 1005.69 1005.57 1005.38 1005.12 1004.83 1004.52 1004.22 1003.96 1003.74 1003.57 1003.45 1003.37 1003.33 1003.31 1003.30 1003.28 1003.24
Thickness
5747 5754 5757 5754 5754 5750 5738 5723 5707 5706 5703 5708 5713 5714 5712 5708 5702 5697 5692 5689 5684 5677 5671 5666 5661 5655 5650 5644 5639 5633 5626 5620 5615 5610 5604 5599 5595 5590 5586 5581 5578 5573 5569 5565
5741 5754 5754 5751 5753 5750 5743 5735 5721 5712 5709 5720 5718 5713 5707 5702 5698 5693 5689 5685 5681 5676 5669 5663 5657 5651 5645 5639 5633 5627 5620 5614 5609 5604 5598 5593 5588 5583 5578 5573 5569 5564 5559 5555
5723 5738 5742 5731 5746 5745 5739 5739 5728 5713 5713 5717 5709 5706 5701 5700 5697 5692 5687 5683 5678 5672 5665 5659 5653 5647 5640 5634 5628 5622 5615 5609 5604 5598 5592 5587 5582 5577 5571 5566 5562 5557 5552 5547
5718 5721 5714 5731 5757 5753 5737 5730 5732 5724 5719 5714 5710 5706 5704 5702 5696 5690 5686 5681 5675 5668 5662 5656 5650 5643 5636 5630 5623 5616 5610 5604 5598 5592 5587 5581 5576 5570 5565 5560 5555 5551 5546 5541
5711 5709 5717 5738 5751 5747 5731 5720 5729 5722 5718 5714 5707 5701 5698 5701 5696 5689 5685 5679 5672 5666 5660 5653 5646 5639 5632 5625 5618 5611 5605 5598 5593 5587 5581 5576 5571 5566 5561 5556 5551 5546 5541 5536
5714 5708 5704 5729 5754 5758 5736 5711 5729 5725 5719 5713 5703 5685 5687 5698 5694 5689 5684 5676 5670 5663 5656 5649 5643 5636 5627 5620 5612 5606 5600 5594 5588 5582 5577 5572 5567 5562 5557 5551 5546 5541 5536 5532
5713 5707 5717 5745 5758 5752 5714 5710 5728 5726 5720 5713 5701 5695 5696 5696 5691 5687 5681 5675 5668 5660 5652 5645 5639 5631 5622 5615 5607 5601 5595 5589 5584 5578 5573 5568 5564 5558 5553 5548 5542 5537 5532 5527
5709 5703 5712 5753 5751 5735 5729 5735 5732 5726 5721 5714 5708 5705 5699 5694 5689 5683 5676 5671 5665 5655 5648 5641 5635 5627 5618 5610 5604 5598 5591 5585 5579 5575 5570 5567 5560 5555 5550 5544 5538 5533 5527 5522
5723 5724 5747 5756 5753 5753 5747 5737 5733 5727 5723 5717 5709 5703 5698 5692 5685 5679 5674 5666 5659 5651 5643 5637 5630 5623 5614 5608 5601 5593 5586 5580 5576 5572 5567 5562 5556 5551 5546 5541 5534 5528 5522 5518
5735 5742 5753 5757 5757 5754 5750 5743 5738 5732 5725 5718 5709 5703 5696 5686 5679 5673 5667 5661 5654 5647 5639 5632 5627 5620 5612 5605 5597 5590 5583 5577 5573 5569 5565 5560 5555 5549 5544 5538 5532 5526 5520 5515
5731 5743 5751 5753 5753 5751 5747 5743 5736 5731 5725 5718 5709 5701 5692 5682 5675 5669 5663 5657 5650 5642 5635 5629 5623 5616 5609 5602 5594 5586 5580 5575 5571 5566 5562 5558 5554 5548 5543 5538 5531 5525 5519 5513
5727 5741 5739 5742 5751 5751 5743 5737 5732 5727 5721 5716 5709 5699 5690 5680 5673 5666 5659 5653 5646 5639 5632 5626 5620 5613 5606 5599 5591 5583 5578 5573 5569 5565 5561 5557 5552 5549 5545 5539 5534 5527 5520 5514
5747 5752 5747 5750 5750 5749 5742 5737 5732 5726 5720 5712 5706 5699 5688 5677 5670 5663 5656 5649 5642 5636 5629 5623 5616 5609 5603 5596 5589 5582 5576 5572 5568 5564 5560 5556 5552 5547 5544 5541 5536 5529 5524 5518
5755 5752 5744 5744 5742 5743 5740 5737 5732 5725 5718 5712 5703 5694 5684 5675 5666 5659 5652 5646 5639 5632 5626 5619 5613 5606 5600 5593 5587 5581 5575 5572 5568 5564 5560 5556 5551 5547 5543 5539 5535 5532 5527 5521
5750 5748 5742 5742 5740 5737 5735 5730 5721 5714 5709 5702 5696 5687 5678 5669 5661 5654 5649 5642 5635 5628 5621 5615 5609 5603 5597 5591 5585 5579 5575 5571 5567 5565 5561 5557 5552 5549 5545 5541 5536 5533 5528 5524
5739 5737 5734 5730 5727 5725 5722 5718 5711 5706 5702 5695 5687 5680 5673 5666 5658 5650 5644 5638 5630 5624 5618 5612 5605 5600 5594 5588 5582 5578 5574 5572 5569 5565 5562 5558 5554 5550 5546 5543 5538 5535 5531 5528
5719 5714 5713 5711 5712 5711 5709 5708 5705 5702 5695 5688 5681 5674 5667 5659 5651 5645 5639 5634 5627 5621 5615 5609 5602 5597 5591 5586 5580 5575 5572 5570 5569 5566 5562 5559 5556 5552 5548 5545 5541 5538 5535 5533
5703 5700 5699 5697 5697 5695 5695 5695 5693 5690 5685 5680 5674 5666 5658 5652 5645 5640 5634 5628 5622 5616 5610 5605 5599 5593 5588 5583 5578 5573 5570 5568 5566 5564 5563 5561 5558 5555 5551 5548 5545 5542 5539 5537
5687 5685 5684 5684 5683 5680 5678 5677 5675 5673 5671 5667 5661 5656 5651 5646 5641 5635 5629 5622 5615 5609 5605 5600 5596 5590 5584 5580 5576 5571 5568 5567 5566 5565 5564 5562 5561 5558 5555 5552 5549 5546 5544 5542
5669 5669 5668 5668 5668 5665 5662 5661 5659 5657 5655 5652 5649 5645 5640 5637 5633 5628 5622 5616 5611 5607 5602 5596 5590 5585 5580 5576 5573 5568 5567 5566 5565 5564 5564 5562 5561 5560 5558 5555 5553 5550 5548 5546
5651 5651 5651 5650 5649 5648 5645 5644 5643 5641 5640 5638 5635 5634 5632 5630 5626 5621 5615 5609 5607 5601 5596 5591 5585 5580 5575 5571 5569 5566 5566 5565 5564 5562 5562 5562 5561 5561 5559 5557 5555 5554 5552 5549
5633 5632 5632 5632 5630 5630 5630 5629 5628 5628 5627 5626 5625 5624 5622 5620 5617 5614 5610 5606 5602 5595 5588 5583 5579 5575 5571 5568 5565 5564 5563 5563 5562 5561 5561 5561 5561 5560 5559 5558 5557 5556 5555 5553
5614 5614 5613 5613 5612 5612 5613 5614 5614 5614 5613 5613 5613 5612 5611 5610 5608 5603 5599 5597 5592 5587 5580 5576 5574 5571 5568 5563 5561 5560 5560 5559 5558 5558 5558 5559 5560 5560 5559 5558 5558 5558 5557 5556
5595 5595 5595 5596 5596 5595 5595 5597 5599 5599 5599 5600 5601 5601 5599 5598 5596 5595 5592 5589 5583 5578 5573 5569 5567 5566 5563 5558 5556 5555 5554 5554 5554 5555 5556 5557 5558 5559 5559 5558 5558 5559 5558 5558
5577 5578 5579 5578 5577 5577 5579 5581 5582 5583 5583 5584 5585 5586 5586 5586 5585 5584 5580 5576 5572 5568 5565 5562 5561 5559 5556 5553 5551 5550 5549 5548 5549 5550 5551 5553 5555 5556 5557 5557 5557 5558 5558 5558
5560 5560 5561 5561 5560 5560 5562 5562 5563 5564 5565 5566 5568 5570 5571 5571 5572 5571 5569 5565 5563 5559 5556 5554 5552 5551 5549 5547 5545 5544 5543 5543 5543 5544 5546 5548 5549 5551 5553 5554 5555 5555 5555 5556
5543 5543 5543 5543 5543 5544 5544 5545 5545 5546 5548 5548 5550 5553 5555 5557 5557 5557 5556 5554 5552 5551 5548 5546 5544 5543 5542 5540 5538 5537 5536 5535 5535 5537 5539 5541 5543 5545 5546 5548 5549 5550 5551 5552